HVN91 PGUM-VVTS

Flight info

Callsign HVN91
Flight time N/A
Altitude 40000
Route PULEE G467 JOM DCT REKEL M765 PANDI/K0883F400 N500 PTH PTH5D
Aircraft B772/H-SDE2E3FGHIJ5LORVWXY/LB1D1

Departure

Time 2026-05-07 10:59
Airport Antonio B. Won Pat International Airport (PGUM)

Arrival

Time N/A
Airport Tan Son Nhat International Airport (VVTS)
Time Latitude Longitude Altitude Speed Heading
2026-05-07 10:44 13.49106 144.80360 311 ft 0 kts 335°
2026-05-07 10:49 13.49104 144.80361 312 ft 1 kts 335°
2026-05-07 10:49 13.49090 144.80368 312 ft 2 kts 335°
2026-05-07 10:49 13.49076 144.80375 312 ft 2 kts 335°
2026-05-07 10:49 13.49061 144.80382 312 ft 2 kts 335°
2026-05-07 10:50 13.49046 144.80389 312 ft 2 kts 335°
2026-05-07 10:50 13.49031 144.80396 312 ft 2 kts 335°
2026-05-07 10:50 13.49017 144.80403 312 ft 2 kts 332°
2026-05-07 10:50 13.49003 144.80411 312 ft 2 kts 320°
2026-05-07 10:51 13.48992 144.80421 312 ft 2 kts 304°
2026-05-07 10:51 13.48985 144.80433 312 ft 2 kts 283°
2026-05-07 10:51 13.48983 144.80446 312 ft 2 kts 255°
2026-05-07 10:51 13.48988 144.80458 312 ft 2 kts 233°
2026-05-07 10:52 13.48997 144.80470 312 ft 2 kts 233°
2026-05-07 10:52 13.49004 144.80479 312 ft 0 kts 233°
2026-05-07 10:54 13.48994 144.80466 312 ft 11 kts 233°
2026-05-07 10:54 13.48941 144.80372 312 ft 16 kts 244°
2026-05-07 10:54 13.48884 144.80250 312 ft 23 kts 244°
2026-05-07 10:55 13.48806 144.80079 312 ft 30 kts 244°
2026-05-07 10:55 13.48723 144.79898 312 ft 27 kts 244°
2026-05-07 10:55 13.48648 144.79735 312 ft 24 kts 244°
2026-05-07 10:55 13.48581 144.79589 312 ft 21 kts 245°
2026-05-07 10:56 13.48513 144.79442 312 ft 27 kts 243°
2026-05-07 10:56 13.48412 144.79222 312 ft 41 kts 244°
2026-05-07 10:56 13.48307 144.78994 312 ft 33 kts 243°
2026-05-07 10:56 13.48243 144.78856 312 ft 32 kts 245°
2026-05-07 10:57 13.48130 144.78609 312 ft 27 kts 244°
2026-05-07 10:57 13.48065 144.78466 312 ft 14 kts 244°
2026-05-07 10:57 13.48033 144.78396 312 ft 5 kts 238°
2026-05-07 10:57 13.48000 144.78383 312 ft 5 kts 174°
2026-05-07 10:58 13.47969 144.78395 312 ft 13 kts 155°
2026-05-07 10:58 13.47914 144.78430 312 ft 2 kts 118°
2026-05-07 10:58 13.47912 144.78445 312 ft 2 kts 80°
2026-05-07 10:58 13.47917 144.78456 312 ft 2 kts 65°
2026-05-07 10:59 13.48017 144.78681 312 ft 71 kts 65°
2026-05-07 10:59 13.48325 144.79350 314 ft 137 kts 65°
2026-05-07 10:59 13.48815 144.80362 666 ft 166 kts 64°
2026-05-07 10:59 13.49553 144.81288 1600 ft 176 kts 44°
2026-05-07 11:00 13.50755 144.81634 2480 ft 185 kts
2026-05-07 11:00 13.52010 144.81185 2850 ft 206 kts 337°
2026-05-07 11:00 13.52948 144.79976 3067 ft 230 kts 301°
2026-05-07 11:00 13.53290 144.78323 3245 ft 250 kts 276°
2026-05-07 11:01 13.53301 144.76476 3460 ft 268 kts 270°
2026-05-07 11:01 13.53290 144.74513 3832 ft 281 kts 269°
2026-05-07 11:01 13.53261 144.72477 4310 ft 290 kts 269°
2026-05-07 11:01 13.53230 144.70382 4854 ft 297 kts 269°
2026-05-07 11:02 13.53200 144.68243 5459 ft 301 kts 268°
2026-05-07 11:02 13.53171 144.66074 6092 ft 305 kts 268°
2026-05-07 11:02 13.53143 144.63884 6733 ft 308 kts 268°
2026-05-07 11:02 13.53114 144.61668 7376 ft 311 kts 268°
2026-05-07 11:03 13.53086 144.59432 8019 ft 314 kts 268°
2026-05-07 11:03 13.53058 144.57179 8644 ft 317 kts 268°
2026-05-07 11:03 13.53030 144.54927 9292 ft 320 kts 268°
2026-05-07 11:03 13.53001 144.52634 9947 ft 321 kts 268°
2026-05-07 11:04 13.52971 144.50311 10427 ft 332 kts 268°
2026-05-07 11:04 13.52940 144.47876 10779 ft 349 kts 269°
2026-05-07 11:04 13.52907 144.45324 11213 ft 364 kts 269°
2026-05-07 11:04 13.52873 144.42663 11713 ft 378 kts 269°
2026-05-07 11:05 13.52837 144.39922 12418 ft 386 kts 269°
2026-05-07 11:05 13.52806 144.37158 13159 ft 394 kts 269°
2026-05-07 11:05 13.52774 144.34313 13913 ft 402 kts 269°
2026-05-07 11:05 13.52737 144.31421 14735 ft 407 kts 269°
2026-05-07 11:06 13.52697 144.28494 15544 ft 412 kts 269°
2026-05-07 11:06 13.52656 144.25526 16323 ft 416 kts 269°
2026-05-07 11:06 13.52613 144.22531 17078 ft 421 kts 269°
2026-05-07 11:06 13.52570 144.19505 17760 ft 426 kts 269°
2026-05-07 11:07 13.52525 144.16444 18458 ft 430 kts 269°
2026-05-07 11:07 13.52480 144.13365 19219 ft 432 kts 269°
2026-05-07 11:07 13.52435 144.10279 19926 ft 434 kts 269°
2026-05-07 11:07 13.52390 144.07164 20605 ft 436 kts 269°
2026-05-07 11:08 13.52434 144.04087 21238 ft 438 kts 272°
2026-05-07 11:08 13.52639 144.00953 21904 ft 440 kts 275°
2026-05-07 11:08 13.52941 143.97811 22529 ft 441 kts 277°
2026-05-07 11:08 13.53301 143.94656 23132 ft 443 kts 277°
2026-05-07 11:09 13.53663 143.91507 23720 ft 445 kts 277°
2026-05-07 11:09 13.54005 143.88368 24303 ft 447 kts 277°
2026-05-07 11:09 13.54336 143.85181 24897 ft 449 kts 276°
2026-05-07 11:09 13.54660 143.81981 25451 ft 451 kts 276°
2026-05-07 11:10 13.54981 143.78770 25970 ft 454 kts 276°
2026-05-07 11:10 13.55303 143.75530 26467 ft 456 kts 276°
2026-05-07 11:10 13.55623 143.72274 26941 ft 458 kts 276°
2026-05-07 11:10 13.55943 143.69041 27389 ft 461 kts 277°
2026-05-07 11:11 13.56275 143.65763 27814 ft 463 kts 277°
2026-05-07 11:11 13.56605 143.62459 28227 ft 465 kts 277°
2026-05-07 11:11 13.56934 143.59140 28624 ft 467 kts 277°
2026-05-07 11:11 13.57262 143.55815 29000 ft 469 kts 277°
2026-05-07 11:12 13.57590 143.52467 29342 ft 472 kts 277°
2026-05-07 11:12 13.57919 143.49108 29686 ft 473 kts 277°
2026-05-07 11:12 13.58249 143.45733 30019 ft 475 kts 277°
2026-05-07 11:12 13.58580 143.42343 30326 ft 477 kts 277°
2026-05-07 11:13 13.58912 143.38943 30632 ft 479 kts 277°
2026-05-07 11:13 13.59241 143.35577 30915 ft 480 kts 277°
2026-05-07 11:13 13.59582 143.32149 31184 ft 482 kts 277°
2026-05-07 11:13 13.59920 143.28696 31449 ft 483 kts 277°
2026-05-07 11:14 13.60253 143.25245 31666 ft 486 kts 276°
2026-05-07 11:14 13.60587 143.21779 31904 ft 487 kts 276°
2026-05-07 11:14 13.60919 143.18317 32131 ft 488 kts 276°
2026-05-07 11:14 13.61249 143.14876 32354 ft 489 kts 276°
2026-05-07 11:15 13.61583 143.11390 32686 ft 488 kts 276°
2026-05-07 11:15 13.61913 143.07936 33023 ft 486 kts 276°
2026-05-07 11:15 13.62245 143.04480 33387 ft 483 kts 276°
2026-05-07 11:15 13.62573 143.01023 33677 ft 483 kts 276°
2026-05-07 11:16 13.62887 142.97631 33963 ft 482 kts 276°
2026-05-07 11:16 13.63204 142.94204 34259 ft 481 kts 276°
2026-05-07 11:16 13.63519 142.90787 34545 ft 480 kts 276°
2026-05-07 11:16 13.63832 142.87376 34826 ft 479 kts 276°
2026-05-07 11:17 13.64145 142.83971 35085 ft 479 kts 275°
2026-05-07 11:17 13.64458 142.80554 35332 ft 478 kts 275°
2026-05-07 11:17 13.64769 142.77153 35618 ft 478 kts 275°
2026-05-07 11:17 13.65080 142.73757 35895 ft 477 kts 275°
2026-05-07 11:18 13.65390 142.70355 36170 ft 476 kts 275°
2026-05-07 11:18 13.65701 142.66969 36436 ft 475 kts 275°
2026-05-07 11:18 13.66021 142.63582 36696 ft 475 kts 275°
2026-05-07 11:18 13.66333 142.60242 36948 ft 474 kts 275°
2026-05-07 11:19 13.66646 142.56862 37196 ft 474 kts 275°
2026-05-07 11:19 13.66957 142.53484 37442 ft 473 kts 275°
2026-05-07 11:19 13.67266 142.50114 37688 ft 472 kts 275°
2026-05-07 11:19 13.67570 142.46792 37974 ft 470 kts 275°
2026-05-07 11:20 13.67875 142.43445 38173 ft 470 kts 275°
2026-05-07 11:20 13.68181 142.40091 38383 ft 470 kts 275°
2026-05-07 11:20 13.68486 142.36734 38600 ft 469 kts 275°
2026-05-07 11:20 13.68788 142.33393 38873 ft 467 kts 275°
2026-05-07 11:21 13.69086 142.30100 39042 ft 467 kts 275°
2026-05-07 11:21 13.69387 142.26776 39242 ft 467 kts 275°
2026-05-07 11:21 13.69686 142.23454 39437 ft 466 kts 275°
2026-05-07 11:21 13.69985 142.20137 39622 ft 465 kts 274°
2026-05-07 11:22 13.70284 142.16820 39808 ft 465 kts 274°
2026-05-07 11:22 13.70578 142.13546 39927 ft 465 kts 274°
2026-05-07 11:22 13.71172 142.06916 39931 ft 465 kts 274°
2026-05-07 11:23 13.71763 142.00294 39931 ft 464 kts 274°
2026-05-07 11:23 13.72351 141.93699 39930 ft 464 kts 274°
2026-05-07 11:24 13.72938 141.87087 39930 ft 464 kts 274°
2026-05-07 11:24 13.73524 141.80465 39930 ft 465 kts 274°
2026-05-07 11:25 13.74106 141.73869 39929 ft 465 kts 274°
2026-05-07 11:25 13.74692 141.67215 39928 ft 465 kts 274°
2026-05-07 11:26 13.75274 141.60580 39928 ft 465 kts 274°
2026-05-07 11:26 13.75850 141.53995 39927 ft 465 kts 274°
2026-05-07 11:27 13.76428 141.47362 39927 ft 465 kts 274°
2026-05-07 11:27 13.77006 141.40709 39926 ft 466 kts 274°
2026-05-07 11:28 13.77582 141.34068 39925 ft 466 kts 274°
2026-05-07 11:28 13.78153 141.27455 39925 ft 466 kts 274°
2026-05-07 11:29 13.78727 141.20783 39924 ft 467 kts 274°
2026-05-07 11:29 13.79299 141.14124 39924 ft 467 kts 274°
2026-05-07 11:30 13.79865 141.07503 39923 ft 467 kts 274°
2026-05-07 11:30 13.80435 141.00818 39923 ft 468 kts 274°
2026-05-07 11:31 13.81008 140.94183 39922 ft 468 kts 275°
2026-05-07 11:31 13.81576 140.87512 39921 ft 468 kts 274°
2026-05-07 11:32 13.82415 140.77497 39921 ft 468 kts 274°
2026-05-07 11:33 13.82974 140.70803 39920 ft 468 kts 275°
2026-05-07 11:33 13.83532 140.64120 39919 ft 468 kts 275°
2026-05-07 11:34 13.84009 140.57470 39919 ft 468 kts 274°
2026-05-07 11:34 13.84462 140.50770 39918 ft 468 kts 274°
2026-05-07 11:35 13.84919 140.44074 39917 ft 468 kts 274°
2026-05-07 11:35 13.85371 140.37431 39917 ft 468 kts 274°
2026-05-07 11:36 13.85827 140.30738 39916 ft 468 kts 274°
2026-05-07 11:36 13.86297 140.24054 39916 ft 468 kts 274°
2026-05-07 11:37 13.86762 140.17413 39915 ft 467 kts 274°
2026-05-07 11:37 13.87221 140.10738 39915 ft 467 kts 274°
2026-05-07 11:38 13.87677 140.04069 39914 ft 467 kts 274°
2026-05-07 11:38 13.88129 139.97400 39914 ft 467 kts 274°
2026-05-07 11:39 13.88580 139.90723 39913 ft 467 kts 274°
2026-05-07 11:39 13.89025 139.84087 39916 ft 467 kts 274°
2026-05-07 11:40 13.89473 139.77406 39912 ft 467 kts 274°
2026-05-07 11:40 13.89918 139.70735 39911 ft 467 kts 274°
2026-05-07 11:41 13.90362 139.64053 39911 ft 467 kts 274°
2026-05-07 11:41 13.90804 139.57368 39910 ft 468 kts 274°
2026-05-07 11:42 13.91242 139.50714 39910 ft 468 kts 274°
2026-05-07 11:42 13.91682 139.44006 39910 ft 468 kts 274°
2026-05-07 11:43 13.92116 139.37361 39909 ft 468 kts 274°
2026-05-07 11:43 13.92552 139.30653 39909 ft 468 kts 274°
2026-05-07 11:44 13.92983 139.23995 39908 ft 468 kts 274°
2026-05-07 11:44 13.93415 139.17300 39907 ft 468 kts 274°
2026-05-07 11:45 13.93845 139.10598 39907 ft 468 kts 274°
2026-05-07 11:45 13.94200 139.05046 39907 ft 468 kts 274°
2026-05-07 11:46 13.94628 138.98337 39907 ft 468 kts 274°
2026-05-07 11:46 13.95121 138.90557 39905 ft 467 kts 274°
2026-05-07 11:47 13.95471 138.85006 39906 ft 467 kts 274°
2026-05-07 11:47 13.95892 138.78318 39905 ft 467 kts 274°
2026-05-07 11:48 13.96307 138.71685 39905 ft 467 kts 274°
2026-05-07 11:48 13.96722 138.65018 39904 ft 466 kts 274°
2026-05-07 11:49 13.97137 138.58339 39904 ft 466 kts 274°
2026-05-07 11:49 13.97548 138.51686 39904 ft 466 kts 274°
2026-05-07 11:50 13.97955 138.45064 39904 ft 465 kts 274°
2026-05-07 11:50 13.98362 138.38411 39903 ft 465 kts 274°
2026-05-07 11:51 13.98767 138.31761 39903 ft 465 kts 274°
2026-05-07 11:51 13.99171 138.25107 39902 ft 465 kts 274°
2026-05-07 11:52 13.99570 138.18506 39902 ft 464 kts 274°
2026-05-07 11:52 13.99969 138.11872 39904 ft 464 kts 274°
2026-05-07 11:53 14.00367 138.05227 39886 ft 464 kts 274°
2026-05-07 11:53 14.00763 137.98570 39877 ft 464 kts 274°
2026-05-07 11:54 14.01155 137.91976 39886 ft 464 kts 274°
2026-05-07 11:54 14.01546 137.85338 39888 ft 464 kts 274°
2026-05-07 11:55 14.01937 137.78694 39888 ft 464 kts 273°
2026-05-07 11:55 14.02325 137.72044 39888 ft 464 kts 273°
2026-05-07 11:56 14.02710 137.65438 39887 ft 464 kts 273°
2026-05-07 11:56 14.03095 137.58794 39887 ft 463 kts 273°
2026-05-07 11:57 14.03477 137.52168 39887 ft 463 kts 273°
2026-05-07 11:57 14.03856 137.45575 39887 ft 463 kts 273°